Wind_Speed
17 14 14 15 20 18 17 14 12 12 12 12 13 12 11 12 12 12 12 12 14 16 16 16 16 19 17 14 12 10 9 9 6 11 11 15 15 15 15 9 6 6 5
20 17 20 21 19 18 16 15 13 11 12 11 12 12 12 11 11 11 11 11 12 13 14 15 16 19 21 20 16 15 13 12 14 11 13 12 16 17 17 17 15 14 10
18 23 21 21 18 16 16 14 12 12 12 13 14 14 14 13 12 13 13 13 12 11 11 12 14 17 21 18 18 16 16 17 11 9 11 16 18 16 16 14 15 14 14
22 25 21 19 19 17 15 14 11 13 16 17 17 17 16 14 12 12 12 12 12 12 14 14 15 16 17 16 16 15 15 16 20 16 16 15 13 15 15 12 13 12 12
29 23 20 18 18 17 14 13 14 19 20 19 18 15 13 12 12 12 11 11 13 14 15 15 14 16 16 15 16 17 16 14 14 15 13 12 11 11 9 9 10 10 11
25 22 19 19 18 16 17 18 19 20 19 17 16 14 14 13 12 12 12 12 12 12 13 13 13 15 14 16 16 15 13 12 12 12 12 11 10 8 8 7 8 9 9
21 20 19 19 19 19 20 20 18 19 18 16 15 16 16 14 13 13 14 14 12 11 12 14 16 15 14 13 13 14 14 13 12 14 12 12 11 9 8 8 9 8 7
22 21 20 20 21 21 21 20 18 19 18 16 16 16 15 13 14 16 16 14 13 14 15 16 15 13 12 13 12 13 13 12 11 10 11 11 6 5 7 7 7 7 7
20 20 21 22 21 20 18 17 16 17 17 16 15 13 13 13 16 18 16 15 16 16 15 14 15 13 12 13 12 10 9 8 9 7 7 5 5 7 7 7 7 4 3
19 18 21 21 20 18 17 16 17 16 14 13 13 14 13 15 16 15 16 15 14 16 14 15 14 12 11 9 11 9 8 10 9 10 9 10 11 11 11 13 11 8 6
17 18 21 18 18 17 16 15 16 14 12 13 13 10 13 13 16 13 15 13 13 13 14 12 13 13 9 9 10 11 12 13 13 12 14 15 16 15 16 14 14 14 12
17 18 18 17 17 15 14 14 13 12 13 12 11 13 13 16 10 11 10 15 12 13 11 14 10 11 11 11 12 13 13 13 14 14 14 15 15 14 14 15 14 15 11
17 17 16 16 16 14 14 12 11 14 12 9 13 15 14 15 14 11 12 13 10 11 10 11 10 11 10 10 11 12 12 16 17 15 16 15 14 15 15 16 18 20 18
18 17 16 14 16 14 13 10 11 12 10 12 14 12 15 17 11 14 8 10 10 10 10 12 12 12 13 13 13 14 15 14 14 14 15 16 17 18 21 25 24 25 21
19 16 14 15 12 12 10 10 13 12 13 14 13 16 21 16 11 4 10 11 10 11 11 14 14 15 17 18 19 19 18 19 17 17 17 18 20 22 25 26 28 27 19
17 14 14 12 9 10 8 11 13 12 12 13 15 17 13 11 5 10 10 9 11 9 12 15 14 15 15 14 16 16 17 17 18 19 19 20 22 25 28 28 24 25 26
13 10 10 9 9 7 6 7 10 11 14 13 15 16 11 8 9 10 6 6 11 16 16 17 15 13 15 17 17 19 22 23 26 28 29 32 22 23 25 24 24 26 26
9 10 9 7 7 5 5 6 9 10 11 13 12 13 9 7 7 8 10 15 14 16 16 14 16 20 20 19 23 27 26 27 29 31 32 26 24 23 23 23 27 26 26
7 6 7 5 2 2 4 4 7 10 11 11 12 13 11 11 8 12 12 15 16 15 15 16 19 19 22 27 31 30 28 29 31 32 27 21 20 24 26 27 28 28 30
5 7 7 6 5 3 1 3 5 8 12 12 12 11 10 12 10 8 9 10 9 11 13 15 17 20 22 25 26 28 28 26 26 28 19 19 21 24 26 28 26 28 30
6 7 7 7 5 5 5 3 4 6 8 11 13 13 12 12 9 8 8 7 6 9 11 14 17 20 22 25 27 29 30 28 26 26 18 15 21 24 30 31 31 29 30
7 8 8 9 8 7 8 8 8 8 8 10 11 11 9 9 7 8 10 10 9 10 11 13 15 18 24 28 29 30 35 27 23 27 25 23 22 27 31 31 34 31 31
8 9 9 9 7 6 5 5 6 7 8 10 10 9 8 9 8 5 6 9 11 13 15 17 19 20 23 27 30 30 36 37 19 21 25 27 26 28 30 32 33 31 31
5 7 7 7 6 5 6 8 8 9 9 10 10 8 7 8 8 7 8 9 11 12 14 16 17 20 22 25 28 33 38 38 21 17 28 31 30 30 31 31 33 32 31
5 5 5 6 6 7 8 9 11 12 13 14 11 9 8 8 9 10 10 10 11 15 16 18 19 22 24 26 28 32 35 37 21 21 35 33 34 29 33 34 34 32 34
11 7 6 6 6 7 9 10 10 12 12 12 14 13 12 13 14 13 13 13 15 17 19 21 23 25 25 27 29 31 28 30 34 27 35 33 39 32 32 35 36 34 36
Wind_Direction
115 116 120 131 122 122 122 119 115 114 106 96 92 86 73 63 70 70 76 80 79 75 69 62 57 55 87 100 90 102 94 90 105 114 96 98 91 77 78 96 114 81 108
116 122 124 125 125 124 117 115 113 108 100 102 100 93 76 72 73 71 74 77 75 75 70 65 65 69 87 91 84 85 85 72 61 107 86 89 80 74 71 72 83 75 64
122 129 130 133 127 119 121 117 111 106 107 106 98 89 88 84 79 79 79 78 77 76 75 72 78 86 91 91 86 82 79 70 76 81 83 60 59 69 67 61 67 68 59
136 138 136 129 122 124 118 109 114 110 107 101 97 92 92 91 86 84 84 81 80 78 72 68 71 83 84 83 91 82 74 67 72 82 86 79 71 64 63 65 74 72 68
136 136 127 125 123 118 117 118 117 105 98 96 93 91 88 87 87 83 75 66 64 66 68 73 71 74 82 85 78 74 73 75 75 79 81 79 76 69 65 53 51 53 42
128 124 124 122 118 121 118 113 103 99 96 92 90 85 79 77 73 66 67 70 72 67 68 76 74 74 73 77 85 85 81 71 75 75 79 73 69 64 61 66 56 42 35
122 120 122 125 125 119 111 105 100 96 91 87 83 73 68 71 74 71 76 81 80 78 76 76 79 79 74 77 74 75 77 77 77 75 64 55 46 35 37 26 29 27 26
126 129 131 128 119 115 110 106 104 99 96 87 75 69 65 67 75 84 94 96 86 77 71 76 78 75 74 74 69 72 69 63 61 47 48 51 45 30 21 22 36 33 23
129 132 128 121 118 113 108 103 97 91 88 85 83 79 71 70 74 79 81 79 84 83 82 87 84 85 75 74 59 48 64 65 57 49 33 27 17 8 4 16 21 18 358
139 133 126 124 122 109 98 94 86 78 77 79 76 73 73 62 57 80 87 86 84 81 87 94 95 93 72 60 49 49 53 32 35 40 16 7 13 11 9 14 1 341 320
135 134 128 126 114 104 96 91 84 81 79 78 73 75 68 71 64 71 72 68 83 96 94 78 72 74 64 56 44 43 24 18 13 11 6 360 359 354 356 349 336 325 310
133 129 124 119 107 104 93 81 77 74 64 57 67 58 58 55 75 69 84 81 80 88 75 77 65 64 58 41 23 13 5 2 360 354 354 343 339 345 335 328 322 329 319
126 130 128 117 103 95 84 74 69 65 55 42 53 57 51 51 44 46 66 57 74 75 65 65 54 50 49 42 27 6 356 348 346 345 341 337 337 324 325 315 314 303 310
129 128 123 110 100 93 88 82 73 62 54 31 34 42 49 54 41 52 47 52 53 69 58 53 40 34 31 26 21 10 1 353 353 347 340 337 327 327 320 321 319 308 297
125 115 109 97 96 93 87 76 57 45 35 27 27 33 50 55 33 168 46 42 43 49 39 43 30 16 18 11 11 9 4 3 351 343 334 326 322 319 312 310 318 320 291
121 116 108 107 107 90 76 60 53 33 34 28 23 39 50 57 101 70 28 24 38 38 36 25 21 12 14 13 13 9 0 351 340 334 329 317 316 313 307 314 309 313 304
126 130 123 121 108 88 77 48 34 23 34 24 17 35 47 48 62 51 30 32 30 20 20 21 8 10 12 14 4 359 359 346 340 332 323 331 321 313 313 316 317 316 314
128 134 133 123 112 101 60 22 16 22 23 27 21 25 34 53 43 42 23 32 29 22 16 2 1 5 5 0 8 8 1 351 342 334 335 337 330 323 319 318 319 321 320
140 138 141 139 134 67 43 13 29 15 19 17 22 16 22 41 43 41 28 28 19 5 1 358 1 355 355 0 7 3 358 353 344 342 343 342 330 326 328 323 329 328 323
155 162 176 183 199 194 242 345 25 6 9 6 18 22 10 34 29 33 13 7 7 358 346 352 349 350 353 350 357 358 351 348 347 347 348 348 327 330 334 331 331 327 327
188 203 209 218 230 247 254 290 356 353 11 6 11 14 7 21 23 3 0 359 340 334 333 341 338 343 343 345 349 351 344 343 347 355 353 341 344 336 339 338 336 333 334
200 219 234 251 253 270 298 323 336 341 354 1 9 8 5 8 16 359 342 333 329 330 327 331 331 343 341 343 345 346 342 332 341 9 355 353 344 344 342 339 337 334 335
204 225 227 238 252 264 280 293 311 327 343 344 356 354 359 1 3 352 333 319 320 328 330 333 336 343 342 338 343 338 334 338 343 5 356 355 353 344 341 342 338 338 337
242 227 236 252 265 275 286 298 306 312 325 326 336 343 347 352 346 340 330 319 319 317 317 321 329 332 335 337 340 342 341 339 329 341 11 0 355 346 344 342 342 341 340
236 261 276 279 291 300 304 303 307 311 314 315 319 323 327 334 337 337 331 322 315 309 313 317 322 327 333 341 343 345 353 8 336 338 359 355 355 350 350 348 348 346 343
274 255 272 280 281 292 292 292 295 297 299 302 308 314 327 331 329 325 324 325 320 320 320 319 324 325 331 343 341 344 354 359 349 330 347 355 354 352 351 351 350 349 345
Height
5892 5894 5894 5895 5896 5898 5898 5900 5901 5902 5902 5901 5901 5901 5901 5901 5901 5900 5900 5899 5898 5896 5896 5895 5892 5890 5888 5890 5892 5893 5892 5891 5890 5890 5890 5890 5890 5890 5889 5888 5887 5888 5888
5892 5895 5896 5897 5898 5900 5901 5902 5902 5904 5902 5903 5903 5903 5903 5903 5903 5901 5901 5900 5899 5899 5898 5896 5893 5892 5891 5893 5894 5894 5893 5892 5892 5892 5892 5891 5890 5889 5889 5890 5888 5887 5887
5893 5896 5898 5899 5901 5903 5903 5904 5905 5905 5905 5905 5905 5905 5905 5905 5904 5903 5902 5901 5900 5899 5897 5895 5894 5893 5893 5894 5894 5895 5895 5895 5894 5895 5895 5894 5892 5891 5890 5891 5890 5889 5890
5895 5898 5900 5901 5903 5904 5905 5906 5907 5907 5907 5908 5908 5907 5907 5907 5906 5905 5903 5901 5900 5900 5900 5898 5897 5896 5896 5896 5896 5896 5897 5897 5897 5896 5897 5896 5896 5894 5893 5894 5892 5892 5890
5898 5901 5903 5904 5905 5906 5908 5909 5910 5910 5910 5910 5910 5909 5909 5910 5910 5908 5905 5904 5905 5903 5901 5900 5899 5900 5900 5900 5900 5901 5900 5899 5898 5897 5896 5895 5894 5894 5894 5894 5892 5890 5888
5902 5904 5905 5907 5908 5910 5911 5911 5912 5912 5912 5913 5912 5912 5913 5912 5910 5908 5908 5908 5906 5904 5903 5902 5901 5902 5903 5903 5903 5903 5902 5900 5900 5898 5897 5896 5895 5896 5895 5893 5892 5891 5891
5905 5907 5909 5910 5912 5913 5913 5915 5916 5917 5918 5918 5918 5917 5916 5914 5913 5911 5910 5909 5908 5906 5905 5904 5905 5904 5904 5904 5903 5903 5902 5902 5900 5899 5900 5900 5900 5900 5900 5900 5896 5893 5891
5909 5910 5912 5914 5914 5915 5917 5919 5920 5920 5920 5921 5920 5918 5918 5916 5914 5913 5911 5909 5909 5909 5910 5909 5908 5907 5906 5905 5905 5905 5904 5904 5904 5902 5900 5900 5899 5898 5898 5895 5893 5893 5893
5914 5914 5915 5916 5917 5920 5922 5924 5924 5924 5924 5921 5920 5918 5917 5916 5916 5915 5914 5912 5911 5911 5911 5911 5911 5910 5909 5908 5907 5907 5905 5904 5904 5903 5901 5900 5900 5900 5898 5895 5894 5892 5891
5917 5918 5918 5919 5922 5925 5926 5927 5928 5928 5926 5923 5921 5920 5919 5920 5921 5919 5917 5916 5915 5914 5913 5913 5913 5913 5913 5912 5908 5907 5906 5904 5903 5903 5902 5902 5900 5900 5897 5894 5893 5891 5890
5920 5921 5922 5924 5926 5928 5929 5929 5930 5929 5925 5923 5923 5923 5923 5920 5920 5920 5919 5920 5920 5916 5914 5916 5914 5913 5912 5911 5910 5908 5906 5904 5903 5902 5901 5899 5898 5896 5893 5891 5889 5888 5887
5924 5924 5926 5927 5930 5931 5931 5932 5932 5930 5927 5926 5926 5927 5926 5923 5922 5921 5921 5918 5919 5919 5916 5916 5916 5914 5911 5910 5908 5907 5906 5904 5902 5900 5899 5897 5896 5894 5891 5888 5886 5884 5882
5926 5928 5929 5930 5931 5932 5933 5935 5934 5932 5929 5928 5930 5928 5929 5928 5927 5925 5924 5921 5918 5919 5918 5915 5915 5915 5913 5910 5908 5906 5905 5904 5902 5899 5897 5896 5893 5888 5886 5885 5883 5881 5878
5929 5930 5931 5933 5933 5934 5936 5936 5935 5933 5931 5932 5931 5931 5931 5930 5927 5926 5927 5924 5923 5920 5919 5917 5915 5915 5914 5912 5910 5909 5907 5904 5900 5896 5894 5892 5888 5884 5881 5879 5877 5875 5873
5931 5933 5934 5934 5937 5936 5938 5939 5937 5933 5934 5934 5933 5933 5933 5932 5930 5930 5928 5925 5923 5921 5920 5918 5917 5915 5914 5911 5910 5909 5906 5903 5899 5896 5893 5889 5885 5881 5877 5874 5872 5869 5867
5934 5935 5936 5937 5938 5940 5941 5939 5938 5936 5937 5935 5934 5935 5935 5930 5927 5928 5928 5927 5923 5922 5921 5920 5919 5918 5915 5912 5910 5909 5906 5902 5899 5894 5890 5885 5881 5877 5873 5870 5867 5865 5862
5937 5937 5938 5939 5940 5941 5942 5941 5939 5938 5938 5937 5934 5935 5935 5932 5929 5930 5930 5928 5925 5922 5920 5917 5917 5917 5914 5913 5911 5908 5905 5901 5896 5890 5885 5879 5876 5873 5869 5867 5864 5861 5857
5938 5938 5939 5939 5940 5942 5942 5941 5941 5939 5939 5939 5936 5934 5935 5933 5931 5932 5931 5925 5923 5920 5920 5919 5916 5912 5912 5911 5909 5907 5903 5897 5891 5885 5879 5876 5872 5866 5865 5862 5858 5855 5850
5939 5939 5940 5941 5941 5942 5943 5941 5942 5939 5939 5939 5936 5934 5932 5932 5931 5927 5924 5922 5921 5922 5920 5917 5915 5913 5911 5906 5906 5902 5899 5894 5887 5882 5878 5872 5869 5864 5861 5856 5850 5846 5841
5939 5940 5940 5940 5941 5941 5941 5941 5941 5941 5940 5939 5937 5936 5932 5930 5928 5926 5924 5923 5923 5922 5920 5918 5916 5913 5910 5908 5906 5901 5894 5890 5886 5879 5873 5869 5866 5860 5856 5850 5845 5839 5834
5938 5939 5940 5940 5941 5941 5941 5941 5941 5941 5941 5939 5936 5935 5932 5931 5930 5927 5926 5925 5924 5924 5922 5919 5916 5914 5909 5906 5902 5898 5891 5886 5882 5879 5873 5866 5862 5856 5850 5844 5838 5832 5826
5939 5938 5939 5940 5941 5941 5941 5940 5941 5942 5940 5939 5938 5936 5934 5932 5931 5929 5928 5927 5926 5925 5923 5920 5919 5914 5908 5903 5901 5896 5890 5885 5882 5878 5871 5865 5858 5851 5846 5840 5834 5826 5817
5939 5939 5938 5939 5940 5941 5941 5940 5940 5939 5938 5938 5937 5937 5935 5933 5933 5932 5931 5929 5927 5925 5922 5920 5917 5912 5908 5904 5899 5893 5885 5878 5878 5874 5866 5862 5856 5850 5844 5837 5830 5822 5813
5938 5938 5938 5938 5939 5940 5940 5939 5938 5938 5937 5935 5935 5935 5934 5933 5932 5931 5930 5928 5925 5923 5921 5918 5915 5910 5907 5903 5898 5891 5883 5873 5869 5868 5862 5858 5852 5846 5842 5834 5826 5817 5809
5936 5937 5938 5938 5938 5938 5939 5938 5937 5937 5936 5935 5935 5934 5933 5932 5931 5930 5930 5928 5926 5923 5920 5917 5913 5909 5905 5901 5896 5890 5883 5874 5870 5866 5860 5854 5848 5843 5837 5829 5821 5813 5804
5933 5935 5936 5936 5936 5935 5935 5935 5935 5935 5934 5934 5933 5932 5931 5930 5929 5929 5928 5926 5924 5921 5917 5914 5912 5907 5903 5899 5894 5889 5883 5877 5871 5864 5856 5850 5845 5838 5831 5824 5815 5807 5799